www.pogodaiklimat.ru

Погода и климат >> Архив погоды >> Россия >> Ямало-Ненецкий АО >> Салехард


АРХИВ ПОГОДЫ в Салехарде

Время (UTC), дата Ветер
(напр.,м/с)
 
Видим.   Явления Облачность Т
(С)
Тd
(С)
f
(%)
Тe
(С)
Тes
(С)
Комфортность P
(гПа)
Po
(гПа)
Тmin
(С)
Tmax
(С)
R
(мм)
R24
(мм)
S
(см)
09 11.07 Ю 2 20 км {дождь} 10/6 500 м
[Cb calv Ac trans Ci ing]
+20.9 +15.2 70 +25 +27 комфорт 998.1 996.2
12 11.07 Ю 3 20 км {дождь} 10/8 600 м
[Cb calv Ac cuf Cc]
+22.2 +14.8 63 +26 +26 душно 997.1 995.3
15 11.07 СЗ 3 20 км 9/6 400 м
[Cb calv Ac cuf]
+17.3 +11.7 70 +17 +17 тепло 997.2 995.3 +22.6 0.0
18 11.07 В 1 10 км слаб. ливневой дождь, в посл. час гроза 10/10 330 м
[Cb calv]
+14.0 +13.0 94 +14 +14 по сезону 997.9 996.0
21 11.07 Ю 2 20 км {ливн. осадки} 10/4 1000 м
[Sc diur, vesp Ac trans]
+15.1 +13.9 93 +15 +15 тепло 999.1 997.2
00 12.07 ЮЗ 3 20 км {ливн. осадки} 8/1 1000 м
[Sc Ac trans Ci fib]
+15.4 +13.3 87 +15 +15 тепло 1000.5 998.6
03 12.07 ЮЗ 3 20 км 3/1 1500 м
[Sc Ac trans Ci fib]
+17.1 +13.0 77 +17 +20 тепло 1002.3 1000.4 +13.7 6
06 12.07 З 3 20 км 10/8 1380 м
[Cu Sc Ac trans]
+17.0 +10.8 67 +17 +18 тепло 1005.2 1003.3
09 12.07 ЮЗ 3 20 км 10/5 600 м
[Cu Sc Ac trans Ci fib]
+18.4 +9.7 57 +19 +21 тепло 1007.9 1005.9
12 12.07 ЮЗ 5 20 км 8/4 1440 м
[Cu Sc Ac trans Ci fib]
+17.8 +7.2 50 +17 +18 по сезону 1009.8 1007.8
15 12.07 С 2 20 км ясно +15.8 +6.5 54 +16 +17 по сезону 1012.1 1010.1 +18.9
18 12.07 штиль 0 20 км 3/0
[Ac lent Ci fib]
+8.3 +6.4 88 +7 +7 холодно 1013.7 1011.7
21 12.07 СВ 1 20 км 3/0
[Ci fib]
+3.8 +2.8 93 +2 +2 очень
холодно
1015.5 1013.5
00 13.07 штиль 0 20 км 4/0
[Ac trans Ci fib]
+7.6 +6.5 93 +7 +8 прохладно 1016.8 1014.8
03 13.07 Ю 1 20 км 4/0
[Ac lent Ci fib]
+16.4 +7.2 54 +17 +22 тепло 1018.1 1016.1 +2.6
06 13.07 Ю 2 20 км 10/0
[Ci fib]
+18.5 +3.6 37 +19 +27 тепло 1018.5 1016.6
12 13.07 ЮВ 2 20 км 8/3 600 м
[Cu hum Ac und Ci fib]
+22.3 +5.8 34 +23 +25 комфорт 1017.0 1015.1
15 13.07 В 2 20 км 10/5 600 м
[Sc diur, vesp Ac As]
+19.9 +9.0 49 +22 +22 комфорт 1016.2 1014.3 +22.8
18 13.07 В 4 20 км {ливн. осадки} 10/5 600 м
[Cb calv Ac trans]
+18.1 +9.2 56 +18 +18 тепло 1014.4 1012.5
21 13.07 В 4
{10}
2000 м ливневой дождь {гроза} 10/10 600 м
[Cb cap]
+13.7 +12.6 93 +12 +12 по сезону 1012.4 1010.4
00 14.07 ЮВ 5
{13}
20 км {гроза, ливн. осадки} 10/8 750 м
[Cb calv Ac trans]
+15.4 +12.0 80 +14 +14 тепло 1008.8 1006.8
03 14.07 ЮВ 4
{10}
20 км 10/8 840 м
[Cb calv Ac trans Ci fib]
+18.0 +12.9 72 +18 +18 тепло 1007.7 1005.8 +13.7 14
06 14.07 Ю 2 20 км {ливн. осадки} 10/6 720 м
[Cb calv Ac und]
+21.5 +16.5 73 +25 +26 комфорт 1007.2 1005.3
09 14.07 Ю 3 20 км 10/8 1500 м
[Sc Ac und]
+22.8 +17.9 74 +28 +29 душно 1007.5 1005.6
12 14.07 З 2 20 км 9/8 1380 м
[Cb calv Ac und]
+23.1 +15.6 63 +27 +28 душно 1008.7 1006.8
15 14.07 СЗ 1 20 км 3/0
[Ac trans Ci fib]
+21.7 +13.8 61 +25 +25 комфорт 1009.0 1007.1 +24.2 0.0
18 14.07 СВ 2 20 км в посл. час ливневой дождь {гроза} 10/8 300 м
[Cb cap Ac trans]
+17.1 +14.6 85 +17 +17 тепло 1007.6 1005.7
21 14.07 С 2 20 км в посл. час гроза {ливн. осадки} 10/5 600 м
[Cb calv Ac und]
+16.2 +13.6 85 +16 +16 тепло 1007.8 1005.9
00 15.07 С 3 20 км гроза без осадков {ливн. осадки} 10/6 600 м
[Cb cap Ac und]
+16.4 +13.2 81 +16 +16 тепло 1006.2 1004.2
03 15.07 СВ 1 20 км {гроза} 10/6 600 м
[Cu Sc Ac und]
+19.8 +15.8 78 +23 +24 комфорт 1005.9 1004.0 +16.0 0.5
06 15.07 СЗ 1 20 км {гроза} 8/4 1000 м
[Cu hum Ac cuf Ci fib]
+21.6 +15.9 70 +25 +30 комфорт 1006.4 1004.5
09 15.07 ЮЗ 3 20 км 9/3 1000 м
[Cu hum Ac trans Ci]
+22.5 +16.7 70 +27 +30 душно 1008.3 1006.4
12 15.07 С 3 20 км 6/3 1000 м
[Cu med, cong Ac trans Ci fib]
+21.7 +12.9 57 +24 +26 комфорт 1010.4 1008.5
15 15.07 СВ 5 20 км 9/4 600 м
[Sc Ac cuf Ci sp]
+17.4 +12.4 72 +17 +17 тепло 1012.1 1010.2 +23.4
18 15.07 СВ 4
{10}
20 км 10/8 960 м
[Sc diur, vesp Ac trans]
+14.4 +10.5 77 +13 +13 по сезону 1013.5 1011.6
21 15.07 СВ 6-12
{12}
20 км 10/8 1000 м
[Sc diur, vesp Ac trans]
+12.2 +8.4 78 +10 +10 по сезону 1014.0 1012.1
00 16.07 СВ 7-12
{14}
20 км 10/8 1050 м
[Sc Ac As]
+10.1 +6.9 81 +6 +6 прохладно 1014.5 1012.5
03 16.07 СВ 7-12
{14}
20 км 10/5 400 м
[Cb calv Ac trans]
+11.1 +7.6 79 +8 +8 прохладно 1014.4 1012.4 +10.1
06 16.07 СВ 6-11
{14}
20 км 10/8 960 м
[Cb calv Ac trans]
+12.9 +8.6 75 +11 +11 прохладно 1013.5 1011.5
09 16.07 СВ 8-13
{14}
20 км 9/6 480 м
[Cb calv Ac trans]
+14.9 +10.1 73 +13 +13 прохладно 1012.8 1010.8
12 16.07 СВ 8-15
{16}
20 км 8/0
[Ac trans Cc]
+18.8 +12.5 67 +19 +19 тепло 1011.0 1009.1
15 16.07 СВ 7-12
{14}
20 км 10/0
[Ac As Cs]
+17.0 +12.4 74 +16 +16 по сезону 1010.0 1008.1 +19.0
18 16.07 СВ 6-10
{15}
20 км 6/1 600 м
[Sc diur, vesp Ac trans Ci]
+16.6 +12.9 79 +16 +16 тепло 1009.2 1007.3
21 16.07 СВ 5-10
{11}
20 км 4/0
[Ac lent Ci fib]
+16.6 +13.9 84 +16 +16 тепло 1009.3 1007.4
00 17.07 СВ 5
{10}
20 км 3/0
[Ci fib]
+16.4 +13.2 81 +15 +16 тепло 1010.0 1008.1
03 17.07 СВ 7-11
{13}
20 км 8/3 1000 м
[Sc Ac trans Ci fib]
+19.0 +14.7 76 +20 +20 тепло 1009.6 1007.7 +15.5
06 17.07 СВ 7-12
{13}
20 км 8/0
[Ac trans Ci fib]
+23.3 +16.9 67 +28 +30 душно 1009.2 1007.3
09 17.07 СВ 6-10
{12}
20 км 10/0
[Ac trans Ci fib]
+27.4 +19.3 61 +33 +35 очень
душно
1008.4 1006.6
12 17.07 СВ 3
{12}
20 км 10/3 600 м
[Cb calv Ac cast Cs]
+27.0 +18.9 61 +32 +34 очень
душно
1008.5 1006.6
15 17.07 штиль 0 20 км 10/6 540 м
[Cb calv Ac und]
+22.9 +17.8 73 +28 +28 душно 1009.2 1007.4 +27.8
18 17.07 СЗ 2
{11}
10 км {гроза, ливн. осадки} 10/8 570 м
[Cb calv Ac und]
+20.0 +18.2 89 +24 +24 комфорт 1009.1 1007.2
21 17.07 СЗ 2 20 км {гроза, ливн. осадки} 10/6 870 м
[Cb calv Ac trans Ci fib]
+19.4 +17.6 89 +22 +22 комфорт 1008.5 1006.6
00 18.07 СВ 4 10 км слаб. ливневой дождь {гроза} 10/6 600 м
[Cb calv Ac und]
+19.7 +17.6 88 +22 +22 комфорт 1008.3 1006.4
03 18.07 СВ 4 20 км {гроза, ливн. осадки} 10/5 1000 м
[Cb calv Ac trans Ci fib]
+20.8 +17.8 83 +25 +26 комфорт 1008.5 1006.6 +19.4 8
06 18.07 СВ 4 20 км {гроза, ливн. осадки} 10/6 600 м
[Cb calv Ac trans Ci fib]
+21.9 +17.5 76 +26 +28 душно 1008.6 1006.7

 

Местоположение метеостанции Салехард (Ямало-Ненецкий АО, Россия): широта 66.53 долгота 66.67 высота над уровнем моря 16 м.

В архиве по умолчанию представлена погода в Салехарде за последнюю неделю. Архивные данные за месяц целиком и за предыдущие месяцы, начиная с января 2011 года, Вы можете получить, выбрав интересующий диапазон дат из раскрывающегося списка и нажав кнопку "Ввод!".


*Определитесь, кто Вы:
робот инопланетянин человек

Внимание! Время в таблицах - всемирное. Для получения местного времени необходимо прибавить поправку, которая равна 5 ч.

Смотрите также архив погоды в соседних городах и на ближайших метеорологических станциях:

Погода в Харпе (Ямало-Ненецкий АО, Россия) (49 км)
Погода в Белоярске (Ямало-Ненецкий АО, Россия) (75 км)
Погода в Питляре (Ямало-Ненецкий АО, Россия) (85 км)
Погода в Полуе (Ямало-Ненецкий АО, Россия) (106 км)
Погода в Елецкой (Коми, Россия) (128 км)
Погода в Мужах (Ямало-Ненецкий АО, Россия) (155 км)
Погода в Воркуте (Коми, Россия) (158 км)
Погода в Петруни (Коми, Россия) (262 км)
Погода в Ныде (Ямало-Ненецкий АО, Россия) (277 км)
Погода в Лонг-Югане (Ямало-Ненецкий АО, Россия) (277 км)

Пояснения к столбцам:

Ветер - указаны скорость ветра в м/с - средняя за 10 мин, порывы в срок и между сроками (в фигурных скобках) и направление, откуда дует ветер: С - северный, СВ - северо-восточный, В - восточный, ЮВ - юго-восточный, Ю - южный, ЮЗ - юго-западный, З - западный, СЗ - северо-западный.
Видимость - горизонтальная дальность видимости в метрах или километрах. При видимости от 1 до 10 км при отсутствии осадков обычно наблюдается дымка, при ухудшении видимости до 1 км и менее - туман. В сухую погоду видимость может ухудшаться дымом, пылью или мглою.
Явления - указаны атмосферные явления, наблюдавшиеся в срок или в последний час перед сроком; фигурными скобками обозначены явления, наблюдавшиеся между сроками (за 1-3 часа до срока); квадратными скобками обозначены град или гололедные отложения с указанием их диаметра в мм.
Облачность - указаны через наклонную черту общая и нижняя облачность в баллах и высота нижней границы облаков в метрах; квадратными скобками обозначены формы облаков: Ci - перистые, Cs - перисто-слоистые, Cc - перисто-кучевые, Ac - высококучевые, As - высокослоистые, Sc - слоисто-кучевые, Ns - слоисто-дождевые, Cu - кучевые, Cb - кучево-дождевые. Подробнее классификацию облаков см. в Атласе облаков (PDF).
T - Температура воздуха - температура, измеренная на высоте 2 м над землей.
Td - Температура точки росы - температура, при понижении до которой содержащийся в воздухе водяной пар достигнет насыщения.
f - Относительная влажность воздуха - влажноcть воздуха, измеренная на высоте 2 м над землей.
Te - Эффективная температура - температура, которую ощущает одетый по сезону человек в тени. Характеристика душности погоды. При расчете учитывается влияние влажности воздуха и скорости ветра на теплоощущения человека.
Tes - Эффективная температура на солнце - температура, которую ощущает человек, с поправкой на солнечный нагрев. Характеристика знойности погоды. Зависит от высоты солнца над горизонтом, облачности и скорости ветра. Ночью, в пасмурную погоду, а также при ветре 12 м/с и более поправка равна нулю.
P - Атмосферное давление - приведенное к уровню моря атмосферное давление.
Po - Атмосферное давление - измеренное на уровне метеостанции атмосферное давление.
Tmin - Минимальная температура - минимум температуры воздуха на высоте 2 м над землей.
Tmax - Максимальная температура - максимум температуры воздуха на высоте 2 м над землей.
R - Количество осадков - Количество выпавших осадков за период времени, мм. При наведении курсора мыши на число - период времени, за который выпало указанное количество осадков.
R24 - Количество осадков - Количество выпавших осадков за 24 часа, мм.
S - Снежный покров - Высота снежного покрова, см. При наведении курсора мыши на число - состояние снежного покрова и степень покрытия местности в баллах.